EW7961 Weather Reports


Display with metric or nautical units.
time (UTC)temp
F
wind
direction
speed
MPH
gust
MPH
rain 1hr
in
rain 24hr
in
rain mn
in
humidity
%
barometer
mb
20260508175019 71 276 2.0 5.0 0.00 0.00 0.00 52 1011.1
20260508174019 70 286 2.0 4.0 0.00 0.00 0.00 55 1011.3
20260508173028 69 272 2.0 5.0 0.00 0.00 0.00 57 1011.5
20260508172028 68 278 2.0 3.0 0.00 0.00 0.00 58 1011.6
20260508171029 67 272 1.0 3.0 0.00 0.00 0.00 58 1011.6
20260508170028 66 282 2.0 3.0 0.00 0.00 0.00 60 1011.9
20260508165109 65 280 1.0 2.0 0.00 0.00 0.00 62 1012.2
20260508164149 65 301 1.0 2.0 0.00 0.00 0.00 62 1012.4
20260508163029 65 320 1.0 2.0 0.00 0.00 0.00 61 1012.5
20260508162149 65 306 0.0 2.0 0.00 0.00 0.00 61 1012.6
20260508161029 65 308 1.0 2.0 0.00 0.00 0.00 60 1012.7
20260508160029 65 315 1.0 3.0 0.00 0.00 0.00 59 1012.8
20260508155030 65 287 2.0 3.0 0.00 0.00 0.00 58 1012.9
20260508154029 65 294 2.0 2.0 0.00 0.00 0.00 58 1012.8
20260508153109 65 307 1.0 3.0 0.00 0.00 0.00 58 1012.6
20260508152110 65 338 1.0 2.0 0.00 0.00 0.00 58 1012.8
20260508151030 65 326 1.0 3.0 0.00 0.00 0.00 57 1013.0
20260508150030 65 288 1.0 2.0 0.00 0.00 0.00 57 1013.3
20260508145030 66 290 2.0 4.0 0.00 0.00 0.00 56 1013.4
20260508144110 65 287 1.0 2.0 0.00 0.00 0.00 60 1013.5
20260508143031 64 297 1.0 2.0 0.00 0.00 0.00 61 1013.6
20260508142111 63 317 1.0 3.0 0.00 0.00 0.00 61 1013.2
20260508141031 62 321 1.0 3.0 0.00 0.00 0.00 63 1013.3
20260508140031 62 290 1.0 2.0 0.00 0.00 0.00 66 1013.3
20260508135031 61 332 2.0 3.0 0.00 0.00 0.00 68 1013.4
20260508134031 60 332 2.0 3.0 0.00 0.00 0.00 70 1013.3
20260508133031 60 270 2.0 3.0 0.00 0.00 0.00 69 1013.3
20260508132031 59 319 3.0 3.0 0.00 0.00 0.00 70 1013.4
20260508131032 58 264 3.0 3.0 0.00 0.00 0.00 71 1013.4
20260508130032 58 256 3.0 4.0 0.00 0.00 0.00 71 1013.4
20260508125031 58 256 3.0 4.0 0.00 0.00 0.00 71 1013.4
20260508124032 58 243 3.0 4.0 0.00 0.00 0.00 71 1013.3
20260508123032 58 253 3.0 4.0 0.00 0.00 0.00 70 1013.3
20260508122017 56 260 3.0 4.0 0.00 0.00 0.00 72 1013.4
20260508121017 54 276 4.0 4.0 0.00 0.00 0.00 76 1013.5
20260508120017 53 300 4.0 4.0 0.00 0.00 0.00 78 1013.5
20260508115018 52 248 3.0 4.0 0.00 0.00 0.00 79 1013.4
20260508114018 52 271 3.0 4.0 0.00 0.00 0.00 80 1013.4
20260508113018 52 251 3.0 4.0 0.00 0.00 0.00 80 1013.3
20260508112018 52 302 3.0 4.0 0.00 0.00 0.00 80 1013.3
20260508111018 52 324 3.0 4.0 0.00 0.00 0.00 79 1013.2
20260508110018 52 286 3.0 4.0 0.00 0.00 0.00 77 1013.1
20260508105018 52 326 3.0 4.0 0.00 0.00 0.00 76 1013.2
20260508104058 52 290 3.0 4.0 0.00 0.00 0.00 74 1013.2
20260508103019 52 281 3.0 4.0 0.00 0.00 0.00 73 1013.2
20260508102019 52 272 3.0 4.0 0.00 0.00 0.00 73 1013.2
20260508101139 52 271 3.0 4.0 0.00 0.00 0.00 72 1013.3
20260508100019 52 251 3.0 4.0 0.00 0.00 0.00 72 1013.3
20260508095019 52 281 3.0 4.0 0.00 0.00 0.00 71 1013.3
20260508094019 52 249 3.0 4.0 0.00 0.00 0.00 71 1013.4
20260508093019 52 283 3.0 4.0 0.00 0.00 0.00 72 1013.4
20260508092019 52 252 3.0 4.0 0.00 0.00 0.00 73 1013.5
20260508091020 52 259 3.0 4.0 0.00 0.00 0.00 75 1013.5
20260508090020 52 260 3.0 4.0 0.00 0.00 0.00 76 1013.4
20260508085100 52 281 3.0 4.0 0.00 0.00 0.00 77 1013.4
20260508084020 52 314 3.0 4.0 0.00 0.00 0.00 77 1013.4
20260508083020 52 351 3.0 4.0 0.00 0.00 0.00 77 1013.4
20260508082020 52 319 3.0 4.0 0.00 0.00 0.00 77 1013.4
20260508081020 52 293 3.0 4.0 0.00 0.00 0.00 76 1013.4
20260508080020 52 311 3.0 4.0 0.00 0.00 0.00 76 1013.5
20260508075018 52 326 3.0 4.0 0.00 0.00 0.00 76 1013.5
20260508074018 53 265 3.0 4.0 0.00 0.00 0.00 77 1013.5
20260508073018 53 269 3.0 4.0 0.00 0.00 0.00 77 1013.6
20260508072018 53 359 3.0 4.0 0.00 0.00 0.00 76 1013.7
20260508071019 53 308 3.0 4.0 0.00 0.00 0.00 75 1013.7
20260508070018 53 334 3.0 4.0 0.00 0.00 0.00 75 1013.8
20260508065019 53 323 3.0 4.0 0.00 0.00 0.00 75 1013.9
20260508064019 53 343 3.0 4.0 0.00 0.00 0.00 75 1014.1
20260508063019 54 6 3.0 4.0 0.00 0.00 0.00 75 1014.2
20260508062022 54 24 3.0 4.0 0.00 0.00 0.00 75 1014.3
20260508061019 54 346 3.0 4.0 0.00 0.00 0.00 74 1014.3
20260508060019 55 28 3.0 4.0 0.00 0.00 0.00 74 1014.4
20260508055020 55 35 2.0 4.0 0.00 0.00 0.00 73 1014.4
20260508054019 55 13 3.0 4.0 0.00 0.00 0.00 72 1014.4
20260508053020 55 22 3.0 4.0 0.00 0.00 0.00 71 1014.4
20260508052020 56 274 3.0 4.0 0.00 0.00 0.00 70 1014.4
20260508051020 56 255 3.0 4.0 0.00 0.00 0.00 69 1014.3
20260508050017 56 288 3.0 4.0 0.00 0.00 0.00 68 1014.3
20260508045020 56 324 3.0 4.0 0.00 0.00 0.00 65 1014.3
20260508044022 56 292 3.0 4.0 0.00 0.00 0.00 65 1014.4
20260508043020 56 343 3.0 4.0 0.00 0.00 0.00 64 1014.3
20260508042017 57 250 3.0 4.0 0.00 0.00 0.00 64 1014.3
20260508041017 57 262 3.0 4.0 0.00 0.00 0.00 63 1014.3
20260508040018 57 242 3.0 4.0 0.00 0.00 0.00 63 1014.3
20260508035018 57 246 3.0 4.0 0.00 0.00 0.00 62 1014.2
20260508034021 57 261 3.0 4.0 0.00 0.00 0.00 61 1014.3
20260508033018 57 289 3.0 4.0 0.00 0.00 0.00 60 1014.3
20260508032018 57 255 3.0 4.0 0.00 0.00 0.00 59 1014.3
20260508031018 58 272 3.0 4.0 0.00 0.00 0.00 59 1014.3
20260508030059 58 242 3.0 4.0 0.00 0.00 0.00 57 1014.4
20260508025019 58 248 3.0 4.0 0.00 0.00 0.00 56 1014.3
20260508024059 59 243 3.0 3.0 0.00 0.00 0.00 54 1014.4
20260508023018 59 255 3.0 4.0 0.00 0.00 0.00 54 1014.3
20260508022019 59 243 3.0 4.0 0.00 0.00 0.00 53 1014.2
20260508021019 60 245 3.0 3.0 0.00 0.00 0.00 52 1014.1
20260508020019 60 252 3.0 4.0 0.00 0.00 0.00 51 1014.0
20260508015019 61 257 3.0 4.0 0.00 0.00 0.00 49 1013.9
20260508014019 62 276 2.0 3.0 0.00 0.00 0.00 48 1013.8
20260508013057 62 267 2.0 3.0 0.00 0.00 0.00 47 1013.7
20260508012020 63 278 2.0 3.0 0.00 0.00 0.00 45 1013.6
20260508011019 64 19 1.0 2.0 0.00 0.00 0.00 44 1013.5
20260508010019 65 293 1.0 3.0 0.00 0.00 0.00 42 1013.4
20260508005019 65 321 1.0 2.0 0.00 0.00 0.00 42 1013.3
20260508004017 66 328 1.0 2.0 0.00 0.00 0.00 40 1013.2
20260508003017 67 300 1.0 3.0 0.00 0.00 0.00 39 1013.1
20260508002017 68 287 1.0 3.0 0.00 0.00 0.00 38 1013.2
20260508001020 69 283 2.0 5.0 0.00 0.00 0.00 37 1013.1
20260508000020 68 274 1.0 4.0 0.00 0.00 0.00 38 1013.1
20260507235017 67 271 1.0 4.0 0.00 0.00 0.00 38 1013.2
20260507234058 68 282 2.0 4.0 0.00 0.00 0.00 37 1013.1
20260507233020 69 274 2.0 6.0 0.00 0.00 0.00 37 1013.2
20260507232138 70 274 2.0 5.0 0.00 0.00 0.00 36 1013.2
20260507231021 72 262 2.0 4.0 0.00 0.00 0.00 35 1013.3
20260507230021 73 270 2.0 4.0 0.00 0.00 0.00 35 1013.4
20260507225018 73 273 3.0 4.0 0.00 0.00 0.00 35 1013.4
20260507224018 73 261 3.0 4.0 0.00 0.00 0.00 35 1013.6
20260507223018 73 268 2.0 4.0 0.00 0.00 0.00 35 1013.6
20260507222018 72 264 2.0 5.0 0.00 0.00 0.00 35 1013.7
20260507221019 72 271 2.0 4.0 0.00 0.00 0.00 35 1013.7
20260507215019 72 271 2.0 5.0 0.00 0.00 0.00 35 1013.8
20260507214059 71 272 3.0 5.0 0.00 0.00 0.00 37 1013.8
20260507213019 71 271 3.0 6.0 0.00 0.00 0.00 36 1013.8
20260507212059 70 265 3.0 5.0 0.00 0.00 0.00 37 1013.9
20260507211019 68 266 3.0 6.0 0.00 0.00 0.00 38 1014.0
20260507210017 67 288 2.0 4.0 0.00 0.00 0.00 38 1014.2
20260507205020 68 266 2.0 4.0 0.00 0.00 0.00 38 1014.4
20260507204020 69 273 2.0 4.0 0.00 0.00 0.00 37 1014.6
20260507203020 69 267 2.0 6.0 0.00 0.00 0.00 37 1014.7
20260507202100 70 264 2.0 4.0 0.00 0.00 0.00 36 1014.8
20260507201017 70 271 3.0 6.0 0.00 0.00 0.00 37 1014.8
20260507200017 69 283 2.0 5.0 0.00 0.00 0.00 37 1014.8
20260507195017 69 281 2.0 5.0 0.00 0.00 0.00 36 1014.9
20260507194021 69 282 2.0 6.0 0.00 0.00 0.00 37 1015.0
20260507193020 69 278 2.0 4.0 0.00 0.00 0.00 37 1015.1
20260507192020 69 275 2.0 6.0 0.00 0.00 0.00 37 1015.2
20260507191021 69 278 2.0 4.0 0.00 0.00 0.00 38 1015.4
20260507190018 68 260 3.0 8.0 0.00 0.00 0.00 37 1015.3
20260507185018 67 257 2.0 4.0 0.00 0.00 0.00 38 1015.5
20260507184058 67 275 1.0 4.0 0.00 0.00 0.00 37 1015.6
20260507183100 67 275 2.0 4.0 0.00 0.00 0.00 37 1015.6
20260507182018 67 288 2.0 6.0 0.00 0.00 0.00 38 1015.8
20260507181019 66 279 3.0 6.0 0.00 0.00 0.00 38 1016.0
20260507180018 66 311 2.0 3.0 0.00 0.00 0.00 37 1016.1